Location: Buckeye Ditch
(40.9104°N, 122.9517°W)
Time: 12:47:55
(UTC+00:00)

Explorer 7 - Pass Details

Date: 28 May 2025
Orbit: 445 x 571 km, 50.3° (Epoch: 22 June)

Event Time Altitude Azimuth Distance (km) Brightness Sun altitude
Rises 14:13:17 0° 294° (WNW) 2,595 9.8 14.7°
Reaches altitude 10° 14:15:41 10° 281° (W) 1,732 8.9 15.1°
Maximum altitude 14:18:58 26° 225° (SW) 1,070 8.0 15.7°
Drops below altitude 10° 14:22:22 10° 168° (SSE) 1,788 9.5 16.3°
Sets 14:24:53 0° 155° (SSE) 2,699 10.5 16.8°
